This is the latest recevied weather packets stored in our database for station/object KE4EST. If no packets are shown the sender has not sent any weather packets the latest 10 day(s).
| Time | Temp. | Humidity | Pressure | Rain* | Wind** | Luminosity | Snow |
|---|---|---|---|---|---|---|---|
| 1777663843 | 18.33° C | 49% | 1013.7 hPa | 0 mm | - | 207 W/m² | - |
| 1777663539 | 18.33° C | 50% | 1013.9 hPa | 0 mm | - | 210 W/m² | - |
| 1777662934 | 18.89° C | 50% | 1013.6 hPa | 0 mm | - | 211 W/m² | - |
| 1777662327 | 18.33° C | 48% | 1013.7 hPa | 0 mm | - | 177 W/m² | - |
| 1777661416 | 18.89° C | 51% | 1013.8 hPa | 0 mm | - | 199 W/m² | - |
| 1777660812 | 19.44° C | 53% | 1013.8 hPa | 0 mm | - | 273 W/m² | - |
| 1777660509 | 19.44° C | 56% | 1014.1 hPa | 0 mm | - | 231 W/m² | - |
| 1777659296 | 18.89° C | 53% | 1014.3 hPa | 0 mm | - | 233 W/m² | - |
| 1777658993 | 19.44° C | 50% | 1014.3 hPa | 0 mm | - | 229 W/m² | - |
| 1777657780 | 19.44° C | 51% | 1014.3 hPa | 0 mm | - | 358 W/m² | - |
| 1777656873 | 18.33° C | 55% | 1014.2 hPa | 0 mm | - | 250 W/m² | - |
| 1777655656 | 18.33° C | 53% | 1014.3 hPa | 0 mm | - | 222 W/m² | - |
| 1777653536 | 18.33° C | 50% | 1014.7 hPa | 0 mm | - | 247 W/m² | - |
| 1777653232 | 18.89° C | 52% | 1014.5 hPa | 0 mm | - | 230 W/m² | - |
| 1777652929 | 18.33° C | 48% | 1014.8 hPa | 0 mm | - | 221 W/m² | - |
| 1777652626 | 18.33° C | 48% | 1014.9 hPa | 0 mm | - | 164 W/m² | - |
| 1777652323 | 18.89° C | 48% | 1015 hPa | 0 mm | - | 252 W/m² | - |
| 1777652019 | 18.89° C | 51% | 1015 hPa | 0 mm | - | 169 W/m² | - |
| 1777651716 | 18.89° C | 52% | 1015 hPa | 0 mm | - | 341 W/m² | - |
| 1777651413 | 18.33° C | 51% | 1014.8 hPa | 0 mm | - | 426 W/m² | - |
| 1777651111 | 17.78° C | 50% | 1014.9 hPa | 0 mm | - | 448 W/m² | - |
| 1777650504 | 17.22° C | 56% | 1014.9 hPa | 0 mm | - | 207 W/m² | - |
| 1777650201 | 16.67° C | 58% | 1014.9 hPa | 0 mm | - | 169 W/m² | - |
| 1777649899 | 18.33° C | 52% | 1015.1 hPa | 0 mm | - | 186 W/m² | - |
| 1777649596 | 17.78° C | 54% | 1015.2 hPa | 0 mm | - | 99 W/m² | - |
* Rain latest hour (hover to see other rain measurements)
** Current wind speed in m/s (hover to see current wind gust speed)